This is the latest recevied weather packets stored in our database for station/object p43g-13. If no packets are shown the sender has not sent any weather packets the latest 10 day(s).
| Time | Temp. | Humidity | Pressure | Rain* | Wind** | Luminosity | Snow |
|---|---|---|---|---|---|---|---|
| 1787673610 | 32.22° C | 70% | 1012.9 hPa | 0 mm | - | 1016 W/m² | - |
| 1787673310 | 32.22° C | 70% | 1013.3 hPa | 0 mm | - | 1005 W/m² | - |
| 1787673010 | 32.22° C | 69% | 1013.2 hPa | 0 mm | - | 897 W/m² | - |
| 1787672699 | 32.22° C | 70% | 1013.4 hPa | 0 mm | - | 939 W/m² | - |
| 1787672398 | 31.67° C | 71% | 1013.2 hPa | 0 mm | - | 991 W/m² | - |
| 1787672099 | 31.67° C | 70% | 1013.3 hPa | 0 mm | - | 403 W/m² | - |
| 1787671786 | 31.67° C | 72% | 1013.2 hPa | 0 mm | - | 940 W/m² | - |
| 1787671486 | 31.67° C | 71% | 1013.5 hPa | 0 mm | - | 940 W/m² | - |
| 1787671186 | 32.22° C | 70% | 1013.2 hPa | 0 mm | - | 979 W/m² | - |
| 1787670874 | 31.67° C | 70% | 1013.4 hPa | 0 mm | - | 659 W/m² | - |
| 1787670574 | 31.67° C | 71% | 1013.3 hPa | 0 mm | - | 279 W/m² | - |
| 1787670274 | 32.22° C | 69% | 1013.3 hPa | 0 mm | - | 914 W/m² | - |
| 1787669974 | 31.67° C | 69% | 1013.1 hPa | 0 mm | - | 931 W/m² | - |
| 1787669674 | 31.67° C | 71% | 1013.4 hPa | 0 mm | - | 846 W/m² | - |
| 1787669373 | 31.67° C | 71% | 1013.3 hPa | 0 mm | - | 865 W/m² | - |
| 1787669075 | 31.67° C | 71% | 1013.4 hPa | 0 mm | - | 832 W/m² | - |
| 1787668774 | 31.67° C | 70% | 1013.3 hPa | 0 mm | - | 168 W/m² | - |
| 1787668474 | 31.67° C | 70% | 1013.4 hPa | 0 mm | - | 832 W/m² | - |
| 1787668174 | 31.11° C | 72% | 1013.6 hPa | 0 mm | - | 805 W/m² | - |
| 1787667874 | 31.11° C | 72% | 1013.3 hPa | 0 mm | - | 775 W/m² | - |
| 1787667574 | 31.11° C | 72% | 1013.6 hPa | 0 mm | - | 770 W/m² | - |
| 1787667274 | 31.67° C | 72% | 1013.4 hPa | 0 mm | - | 798 W/m² | - |
| 1787666974 | 31.67° C | 71% | 1013.6 hPa | 0 mm | - | 584 W/m² | - |
| 1787666674 | 31.67° C | 73% | 1013.6 hPa | 0 mm | - | 761 W/m² | - |
| 1787666374 | 31.67° C | 73% | 1013.6 hPa | 0 mm | - | 748 W/m² | - |
* Rain latest hour (hover to see other rain measurements)
** Current wind speed in m/s (hover to see current wind gust speed)